Weather History for Rome, NY

Change the Weather History Date:

Saturday, February 2, 2013

  Actual Average Record
Temperature  
Mean Temperature 12 °F -  
Max Temperature 19 °F 35 °F 48 °F (1991)
Min Temperature 5 °F 13 °F -21 °F (1993)
Degree Days  
Heating Degree Days 53    
Moisture  
Dew Point 8 °F    
Average Humidity 76    
Maximum Humidity 88    
Minimum Humidity 62    
Precipitation  
Precipitation 0.00 in - - ()
Sea Level Pressure  
Sea Level Pressure 30.12 in    
Wind  
Wind Speed 5 mph (SE)    
Max Wind Speed 12 mph    
Max Gust Speed -    
Visibility 6 miles    
Events Snow    
Averages and records for this station are not official NWS values.
T = Trace of Precipitation, MM = Missing Value Source: NWS Daily Summary

Daily Weather History Graph

Daily Weather History Graph

Search for Another Location

Airport:

Trip Planner

Search our weather history database for the weather conditions in past years. The results will help you decide how hot, cold, wet, or windy it might be!

Date:

Astronomy

Feb. 02, 2013 Rise Set
Actual Time 7:15 AM EST 5:15 PM EST
Civil Twilight 6:45 AM EST 5:45 PM EST
Nautical Twilight 6:11 AM EST 6:19 PM EST
Astronomical Twilight 5:38 AM EST 6:53 PM EST
Moon No Moon Rise 10:11 AM EST (2/2)
Length of Visible Light 10h 59m
Length of Day
9h 59m
Waning Gibbous, 60% of the Moon is Illuminated
Feb 2
Waning Gibbous
Feb 3
Last Quarter
Feb 10
New
Feb 17
First Quarter
Feb 25
Full

Hourly Weather History & Observations

Time (EST) Temp. Windchill Dew Point Humidity Pressure Visibility Wind Dir Wind Speed Gust Speed Precip Events Conditions
12:53 AM 12.0 °F - 5.0 °F 73% 30.21 in 10.0 mi Calm Calm - N/A   Mostly Cloudy
1:53 AM 7.0 °F 0.1 °F 3.9 °F 87% 30.22 in 10.0 mi ENE 3.5 mph - N/A   Clear
2:53 AM 5.0 °F -2.1 °F 1.9 °F 87% 30.22 in 10.0 mi ENE 3.5 mph - N/A   Mostly Cloudy
3:53 AM 8.1 °F - 3.9 °F 83% 30.22 in 5.0 mi Calm Calm - 0.00 in Snow Light Snow
4:45 AM 10.9 °F 4.7 °F 7.0 °F 84% 30.18 in 2.5 mi East 3.5 mph - 0.00 in Snow Light Snow
4:53 AM 10.0 °F 1.8 °F 7.0 °F 87% 30.20 in 3.0 mi SE 4.6 mph - 0.00 in Snow Light Snow
5:11 AM 10.0 °F 3.6 °F 7.0 °F 87% 30.18 in 2.0 mi SE 3.5 mph - 0.00 in Snow Light Snow
5:18 AM 10.9 °F 1.4 °F 7.0 °F 84% 30.17 in 1.8 mi ESE 5.8 mph - 0.00 in Snow Light Snow
5:31 AM 10.9 °F 1.4 °F 7.0 °F 84% 30.17 in 2.5 mi ESE 5.8 mph - 0.00 in Snow Light Snow
5:53 AM 10.9 °F 2.9 °F 8.1 °F 88% 30.20 in 2.5 mi ESE 4.6 mph - 0.00 in Snow Light Snow
6:01 AM 12.0 °F 2.7 °F 8.1 °F 84% 30.17 in 4.0 mi ESE 5.8 mph - 0.00 in Snow Light Snow
6:21 AM 12.0 °F 4.1 °F 9.0 °F 88% 30.17 in 3.0 mi ESE 4.6 mph - 0.00 in Snow Light Snow
7:53 AM 10.9 °F 0.2 °F 8.1 °F 88% 30.20 in 10.0 mi ESE 6.9 mph - N/A   Mostly Cloudy
8:53 AM 14.0 °F 6.5 °F 8.1 °F 77% 30.19 in 10.0 mi SE 4.6 mph - N/A   Clear
9:53 AM 17.1 °F 8.7 °F 7.0 °F 65% 30.18 in 10.0 mi Variable 5.8 mph - N/A   Partly Cloudy
10:53 AM 18.0 °F 8.7 °F 7.0 °F 62% 30.16 in 10.0 mi SSW 6.9 mph - N/A   Overcast
11:53 AM 18.0 °F 8.7 °F 7.0 °F 62% 30.12 in 10.0 mi South 6.9 mph - N/A   Overcast
12:53 PM 19.0 °F 9.0 °F 8.1 °F 62% 30.10 in 10.0 mi SSW 8.1 mph - N/A   Overcast
1:20 PM 19.0 °F 8.2 °F 9.0 °F 65% 30.06 in 2.5 mi SSW 9.2 mph - 0.00 in Snow Light Snow
1:51 PM 19.4 °F 7.2 °F 10.4 °F 68% 30.06 in 2.0 mi SSW 11.5 mph - 0.00 in Snow Light Snow
1:53 PM 19.0 °F 9.0 °F 10.0 °F 68% 30.08 in 2.0 mi SSW 8.1 mph - 0.00 in Snow Light Snow
2:00 PM 19.0 °F 8.2 °F 10.9 °F 71% 30.05 in 1.8 mi South 9.2 mph - 0.00 in Snow Light Snow
2:15 PM 19.0 °F 8.2 °F 10.9 °F 71% 30.05 in 3.0 mi South 9.2 mph - 0.00 in Snow Light Snow
2:37 PM 19.0 °F 8.2 °F 10.9 °F 71% 30.04 in 4.0 mi South 9.2 mph - 0.00 in Snow Light Snow
2:53 PM 19.0 °F 6.8 °F 10.0 °F 68% 30.07 in 7.0 mi South 11.5 mph - 0.00 in   Overcast
3:53 PM 19.0 °F 8.2 °F 10.0 °F 68% 30.06 in 5.0 mi South 9.2 mph - 0.00 in Snow Light Snow
4:53 PM 18.0 °F 11.1 °F 12.0 °F 78% 30.06 in 5.0 mi South 4.6 mph - 0.00 in   Haze
5:53 PM 17.1 °F 10.0 °F 10.9 °F 77% 30.05 in 10.0 mi ENE 4.6 mph - N/A   Mostly Cloudy
6:53 PM 17.1 °F 8.7 °F 10.0 °F 74% 30.05 in 10.0 mi East 5.8 mph - N/A   Overcast
7:53 PM 17.1 °F 8.7 °F 10.0 °F 74% 30.06 in 10.0 mi East 5.8 mph - N/A   Overcast
8:53 PM 17.1 °F 8.7 °F 9.0 °F 71% 30.05 in 10.0 mi East 5.8 mph - N/A   Overcast
9:53 PM 16.0 °F 7.4 °F 9.0 °F 74% 30.06 in 10.0 mi East 5.8 mph - N/A   Overcast
10:53 PM 14.0 °F 5.1 °F 9.0 °F 80% 30.05 in 10.0 mi East 5.8 mph - N/A   Mostly Cloudy
11:53 PM 8.1 °F - 3.9 °F 83% 30.04 in 10.0 mi Calm Calm - N/A   Clear